Namest Nad Oslav, Czech Republic

7:54 PM CET on February 27, 2017 (GMT +0100)
Namest

Weather History for LKNA - September, 2013

Change the Weather History Date:

Sunday, September 22, 2013

  Actual Average Record
Temperature  
Mean Temperature 53 °F -  
Max Temperature 60 °F - - ()
Min Temperature 46 °F - - ()
Degree Days  
Heating Degree Days 12    
Growing Degree Days 3 (Base 50)    
Moisture  
Dew Point 48 °F    
Average Humidity 87    
Maximum Humidity 100    
Minimum Humidity 63    
Precipitation  
Precipitation 0.00 in - - ()
Sea Level Pressure  
Sea Level Pressure 30.31 in    
Wind  
Wind Speed 6 mph ()    
Max Wind Speed 10 mph    
Max Gust Speed -    
Visibility 4.0 miles    
Events Fog    
T = Trace of Precipitation, MM = Missing Value Source: Averaged Metar Reports

Daily Weather History Graph

Daily Weather History Graph

Search for Another Location

Airport or City:

Trip Planner

Search our weather history database for the weather conditions in past years. The results will help you decide how hot, cold, wet, or windy it might be!

Date:

Astronomy

Sep. 22, 2013 Rise Set
Actual Time 6:41 AM CEST 6:53 PM CEST
Civil Twilight 6:10 AM CEST 7:25 PM CEST
Nautical Twilight 5:32 AM CEST 8:02 PM CEST
Astronomical Twilight 4:53 AM CEST 8:41 PM CEST
Moon 8:10 PM CEST (9/22) 10:03 AM CEST (9/22)
Length of Visible Light 13h 14m
Length of Day
12h 11m
Waning Gibbous, 90% of the Moon is Illuminated
Sep 22
Waning Gibbous
Sep 27
Last Quarter
Oct 5
New
Oct 12
First Quarter
Oct 19
Full

Hourly Weather History & Observations

Time (CEST) Temp. Windchill Dew Point Humidity Pressure Visibility Wind Dir Wind Speed Gust Speed Precip Events Conditions
12:00 AM 50.0 °F - 48.2 °F 94% 30.33 in - NW 8.1 mph - N/A   Clear
1:00 AM 50.0 °F - 50.0 °F 100% 30.33 in - NW 9.2 mph - N/A   Clear
2:00 AM 48.2 °F - 46.4 °F 93% 30.33 in - NNW 4.6 mph - N/A   Clear
3:00 AM 48.2 °F - 46.4 °F 93% 30.33 in 1.9 mi North 4.6 mph - N/A   Mist
4:00 AM 46.4 °F 43.5 °F 46.4 °F 100% 30.33 in 2.5 mi North 5.8 mph - N/A   Mist
5:00 AM 46.4 °F 44.3 °F 46.4 °F 100% 30.33 in 0.6 mi North 4.6 mph - N/A   Mist
5:08 AM 46.4 °F 44.3 °F 46.4 °F 100% 30.33 in 0.4 mi North 4.6 mph - N/A Fog Fog
6:00 AM 46.4 °F 42.9 °F 46.4 °F 100% 30.33 in 0.2 mi NNW 6.9 mph - N/A Fog Fog
7:00 AM 46.4 °F 43.5 °F 46.4 °F 100% 30.33 in 0.2 mi NNW 5.8 mph - N/A Fog Fog
8:00 AM 46.4 °F 42.9 °F 46.4 °F 100% 30.33 in 0.1 mi NNW 6.9 mph - N/A Fog Fog
9:00 AM 48.2 °F - 48.2 °F 100% 30.33 in 0.6 mi NNW 4.6 mph - N/A Fog Fog
9:23 AM 50.0 °F - 48.2 °F 94% 30.36 in 1.6 mi NNW 4.6 mph - N/A   Scattered Clouds
10:00 AM 51.8 °F - 51.8 °F 100% 30.36 in 2.8 mi NNW 5.8 mph - N/A   Mostly Cloudy
10:30 AM 53.6 °F - 53.6 °F 100% 30.36 in 5.0 mi NNW 4.6 mph - N/A   Mostly Cloudy
11:00 AM 53.6 °F - 51.8 °F 94% 30.36 in 6.2 mi NNW 4.6 mph - N/A   Mostly Cloudy
12:00 PM 59.0 °F - 50.0 °F 72% 30.33 in 6.2 mi WNW 5.8 mph - N/A   Scattered Clouds
1:00 PM 60.8 °F - 48.2 °F 63% 30.33 in 6.2 mi WNW 5.8 mph - N/A   Mostly Cloudy
2:00 PM 59.0 °F - 46.4 °F 63% 30.30 in 6.2 mi NW 10.4 mph - N/A   Mostly Cloudy
3:00 PM 59.0 °F - 46.4 °F 63% 30.30 in 6.2 mi WNW 8.1 mph - N/A   Mostly Cloudy
4:00 PM 60.8 °F - 48.2 °F 63% 30.27 in 6.2 mi WNW 9.2 mph - N/A   Mostly Cloudy
5:00 PM 60.8 °F - 48.2 °F 63% 30.27 in 6.2 mi WNW 10.4 mph - N/A   Mostly Cloudy
6:00 PM 59.0 °F - 48.2 °F 67% 30.24 in 6.2 mi WNW 6.9 mph - N/A   Mostly Cloudy
7:00 PM 55.4 °F - 48.2 °F 77% 30.24 in 6.2 mi WNW 5.8 mph - N/A   Mostly Cloudy
8:00 PM 53.6 °F - 48.2 °F 82% 30.24 in 6.2 mi WNW 6.9 mph - N/A   Mostly Cloudy
9:00 PM 55.4 °F - 50.0 °F 82% 30.24 in 6.2 mi West 5.8 mph - N/A   Mostly Cloudy
10:00 PM 51.8 °F - 48.2 °F 88% 30.24 in 6.2 mi West 5.8 mph - N/A   Mostly Cloudy
11:00 PM 51.8 °F - 48.2 °F 88% 30.21 in 6.2 mi West 5.8 mph - N/A   Mostly Cloudy